HST 1 20580U 90037B 26093.66929401 .00012406 00000+0 40809-3 0 9997 2 20580 28.4724 229.5454 0002132 51.9469 308.1319 15.29899616777144 POLAR 1 23802U 96013A 26094.09552595 .00000097 00000+0 00000+0 0 9999 2 23802 79.7819 227.9051 6395568 211.6054 85.4938 1.29845741143898 SWAS 1 25560U 98071A 26094.25486735 .00007503 00000+0 47826-3 0 9998 2 25560 69.8969 58.0992 0006106 334.3335 25.7525 15.09098782486112 CXO 1 25867U 99040B 26095.33038449 .00000781 00000+0 00000+0 0 9990 2 25867 54.9818 118.8093 7953036 310.6470 0.0525 0.37805440 17044 XMM-NEWTON 1 25989U 99066A 26095.54798203 .00000069 00000+0 00000+0 0 9996 2 25989 64.8516 283.9204 4698499 66.1986 0.0494 0.50130994 22640 TERRA 1 25994U 99068A 26094.26120273 .00000777 00000+0 16741-3 0 9997 2 25994 97.9539 146.7122 0003671 99.1126 325.8657 14.61044406398816 CLUSTER II-FM7 (SAMBA) 1 26410U 00041A 26090.03773165 .00002444 00000+0 00000+0 0 9999 2 26410 149.3581 38.1493 8953066 254.4502 0.4223 0.44796982 19968 CLUSTER II-FM8 (TANGO) 1 26464U 00045B 26094.11120259 .00003194 00000+0 00000+0 0 9998 2 26464 149.6837 39.5667 8962149 255.7736 0.6086 0.44400104 19975 ODIN 1 26702U 01007A 26094.06606473 .00082546 00000+0 96588-3 0 9991 2 26702 97.4009 131.1923 0004595 88.3838 271.7946 15.61283420377790 TIMED 1 26998U 01055B 26094.20757407 .00003127 00000+0 28851-3 0 9997 2 26998 74.0713 23.9564 0002616 242.7441 117.3477 14.95117901319760 CORIOLIS 1 27640U 03001A 26093.99706061 .00000216 00000+0 12223-3 0 9992 2 27640 98.7157 102.0082 0015085 68.5844 291.6940 14.19923337203698 SORCE 1 27651U 03004A 26094.01147896 .00006676 00000+0 49227-3 0 9996 2 27651 39.9919 324.7458 0018421 242.1037 117.7892 15.03306301260736 MOST 1 27843U 03031D 26094.01276038 .00000142 00000+0 85161-4 0 9990 2 27843 98.7077 102.7667 0010955 105.1822 255.0568 14.21306755180174 SCISAT 1 1 27858U 03036A 26094.07602747 .00001220 00000+0 16069-3 0 9995 2 27858 73.9303 318.5863 0006402 31.6154 328.5405 14.81362357220475 SWIFT 1 28485U 04047A 26094.11616318 .00078953 00000+0 85589-3 0 9999 2 28485 20.5545 33.3576 0002943 354.8348 5.2067 15.61795317175244 HINODE (SOLAR-B) 1 29479U 06041A 26094.05517075 .00001222 00000+0 21873-3 0 9993 2 29479 98.0603 111.2899 0018014 159.1078 201.0867 14.68518958 43999 SHIJIAN-6 02A (SJ-6 02A) 1 29505U 06046A 26094.25708730 .00016667 00000+0 86708-3 0 9997 2 29505 97.6441 134.7860 0004183 55.5517 304.6110 15.16114093 61066 SHIJIAN-6 02B (SJ-6 02B) 1 29506U 06046B 26094.22913102 .00003076 00000+0 24456-3 0 9998 2 29506 97.7100 123.7678 0012223 320.3285 39.7044 15.01133141 59646 FGRST (GLAST) 1 33053U 08029A 26094.09723656 .00006934 00000+0 26796-3 0 9996 2 33053 25.5840 358.7641 0008208 169.4642 190.6069 15.23541010984525 SDO 1 36395U 10005A 26093.00669913 -.00000054 00000+0 00000+0 0 9994 2 36395 34.4952 87.4755 0000578 22.7728 341.7255 1.00274249 59313 CRYOSAT 2 1 36508U 10013A 26094.26809110 .00000392 00000+0 96493-4 0 9993 2 36508 92.0253 259.3747 0002451 96.8806 263.2680 14.51898295847357 X-SAT 1 37389U 11015C 26094.22839904 .00000279 00000+0 13625-3 0 9993 2 37389 98.3461 74.7982 0013485 195.5413 164.5356 14.25183699777143 GCOM-W1 (SHIZUKU) 1 38337U 12025A 26094.30091703 .00001023 00000+0 23702-3 0 9990 2 38337 98.2088 35.9836 0001123 75.3642 85.9206 14.57138238738278 NUSTAR 1 38358U 12031A 26094.25002315 .00010261 00000+0 59152-3 0 9997 2 38358 6.0262 228.4555 0006911 86.4001 237.1994 15.08080162 1302 NEOSSAT 1 39089U 13009D 26094.20182549 .00000288 00000+0 11435-3 0 9998 2 39089 98.4160 275.9975 0012165 105.7698 254.4831 14.35799793686121 BRITE-AUSTRIA 1 39091U 13009F 26094.02819480 .00000377 00000+0 14299-3 0 9992 2 39091 98.3975 275.3041 0011383 100.8326 259.4142 14.36511780686400 IRIS 1 39197U 13033A 26094.15307722 .00002495 00000+0 29233-3 0 9998 2 39197 97.9379 293.6464 0024022 198.1792 161.8567 14.85729007689387 HISAKI (SPRINT-A) 1 39253U 13049A 26093.52256178 .00000177 00000+0 15207-3 0 9997 2 39253 29.7188 239.6085 0136415 131.5265 229.7098 13.55534574621283 CASSIOPE 1 39265U 13055A 26094.23119005 .00046369 -12761-6 55071-3 0 9994 2 39265 80.9171 156.1926 0306949 310.7339 46.7598 15.20713989656416 STSAT-3 1 39422U 13066G 26094.25772671 .00009853 00000+0 74866-3 0 9992 2 39422 97.6163 65.4040 0008930 283.1318 76.8910 15.02332160673100 SWARM B 1 39451U 13067A 26094.27629861 .00007225 00000+0 26253-3 0 9997 2 39451 87.7505 4.7437 0002912 77.4607 282.6968 15.28112399671956 SWARM A 1 39452U 13067B 26094.24026786 .00019059 00000+0 34640-3 0 9999 2 39452 87.3285 83.6802 0003512 95.4249 264.7412 15.49410001694795 SWARM C 1 39453U 13067C 26094.24019650 .00019164 00000+0 34835-3 0 9995 2 39453 87.3286 82.2612 0003516 95.7385 264.4277 15.49407552694758 BRITE-CA1 (TORONTO) 1 40020U 14033L 26094.24738424 .00002576 00000+0 39331-3 0 9993 2 40020 97.9616 224.5943 0079506 152.8274 207.7128 14.72552082631330 OCO 2 1 40059U 14035A 26094.26685190 .00000897 00000+0 20913-3 0 9990 2 40059 98.1966 36.7093 0001584 90.5748 269.5632 14.57127116625289 BRITE-PL2 (HEWELIUSZ) 1 40119U 14049B 26094.25356084 .00004735 00000+0 44524-3 0 9997 2 40119 97.9006 205.7361 0013835 1.3674 358.7582 14.94321467630405 MMS 1 1 40482U 15011A 26094.25002315 -.00001255 00000+0 00000+0 0 9997 2 40482 71.1346 349.8029 8386441 165.8179 316.5416 0.28338620 1300 MMS 2 1 40483U 15011B 26094.25002315 -.00001255 00000+0 00000+0 0 9998 2 40483 71.1348 349.8051 8387189 165.8239 316.5264 0.28338619 1304 MMS 3 1 40484U 15011C 26094.25002315 -.00001255 00000+0 00000+0 0 9999 2 40484 71.1374 349.8097 8386443 165.8182 316.5312 0.28338575 1308 MMS 4 1 40485U 15011D 26094.25002315 -.00001255 00000+0 00000+0 0 9990 2 40485 71.1349 349.8050 8385972 165.8256 316.5180 0.28338570 1306 ASTROSAT 1 40930U 15052A 26093.34722861 .00002768 00000+0 25573-3 0 9999 2 40930 5.9980 334.0049 0007607 42.4365 317.6351 14.82370020568705 DAMPE 1 41173U 15078A 26094.23250809 .00003040 00000+0 10526-3 0 9990 2 41173 97.4578 99.3415 0011625 347.4899 12.6051 15.30596810573231 PISAT 1 41784U 16059B 26093.96291347 .00001947 00000+0 33903-3 0 9997 2 41784 97.8192 97.6114 0030579 83.0677 277.4006 14.68843739508849 HXMT (HUIYAN) 1 42758U 17034A 26094.24836931 .00011732 00000+0 57337-3 0 9999 2 42758 43.0139 234.5401 0030984 34.3812 325.9034 15.17813161486426 FLYING LAPTOP 1 42831U 17042G 26094.31711067 .00003613 00000+0 28863-3 0 9991 2 42831 97.4360 252.8659 0019782 15.9149 344.2693 15.00697073475377 ZHANGHENG 1-01 (CSES-1) 1 43194U 18015C 26094.25081943 .00016521 00000+0 74497-3 0 9997 2 43194 97.6799 258.4633 0018676 149.2414 210.9919 15.20946705453400 SALSAT 1 46495U 20068K 26093.94381268 .00015678 00000+0 56347-3 0 9999 2 46495 97.8863 92.5537 0009436 192.6370 167.4633 15.28700775304012 IXPE 1 49954U 21121A 26094.25002315 .00017215 00000+0 98247-3 0 9995 2 49954 0.2281 156.4045 0007550 41.3593 100.6015 15.09567417 5589